datetime,pool elevation
1963-12-13,8018.8
1963-12-14,8018.94
1963-12-15,8019.07
1963-12-16,8019.21
1963-12-17,8019.48
1963-12-18,8019.68
1963-12-19,8019.91
1963-12-20,8020.02
1963-12-21,8020.19
1963-12-22,8020.36
1963-12-23,8020.54
1963-12-24,8020.71
1963-12-25,8020.88
1963-12-26,8021.05
1963-12-27,8021.23
1963-12-28,8021.4
1963-12-29,8021.57
1963-12-30,8021.75
1963-12-31,8021.92
1964-01-01,8022.03
1964-01-02,8022.13
1964-01-03,8022.2
1964-01-04,8022.32
1964-01-05,8022.43
1964-01-06,8022.55
1964-01-07,8022.74
1964-01-08,8022.84
1964-01-09,8022.95
1964-01-10,8023.03
1964-01-11,8023.12
1964-01-12,8023.2
1964-01-13,8023.29
1964-01-14,8023.37
1964-01-15,8023.41
1964-01-16,8023.45
1964-01-17,8023.51
1964-01-18,8023.6
1964-01-19,8023.68
1964-01-20,8023.77
1964-01-21,8023.93
1964-01-22,8024.07
1964-01-23,8024.2
1964-01-24,8024.33
1964-01-25,8024.46
1964-01-26,8024.58
1964-01-27,8024.71
1964-01-28,8024.83
1964-01-29,8024.93
1964-01-30,8025.04
1964-01-31,8025.14
1964-02-01,8025.26
1964-02-02,8025.37
1964-02-03,8025.49
1964-02-04,8025.52
1964-02-05,8025.61
1964-02-06,8025.73
1964-02-07,8025.82
1964-02-08,8025.89
1964-02-09,8025.97
1964-02-10,8026.04
1964-02-11,8026.11
1964-02-12,8026.2
1964-02-13,8026.26
1964-02-14,8026.34
1964-02-15,8026.4
1964-02-16,8026.47
1964-02-17,8026.53
1964-02-18,8026.6
1964-02-19,8026.67
1964-02-20,8026.71
1964-02-21,8026.78
1964-02-22,8026.79
1964-02-23,8026.81
1964-02-24,8026.82
1964-02-25,8026.83
1964-02-26,8026.86
1964-02-27,8026.87
1964-02-28,8026.9
1964-02-29,8026.95
1964-03-01,8026.91
1964-03-02,8026.93
1964-03-03,8027.0
1964-03-04,8027.01
1964-03-05,8027.02
1964-03-06,8027.05
1964-03-07,8027.06
1964-03-08,8027.07
1964-03-09,8027.08
1964-03-10,8027.1
1964-03-11,8027.09
1964-03-12,8027.08
1964-03-13,8027.11
1964-03-14,8027.09
1964-03-15,8027.08
1964-03-16,8027.06
1964-03-17,8027.04
1964-03-18,8027.03
1964-03-19,8027.04
1964-03-20,8027.08
1964-03-21,8027.16
1964-03-22,8027.24
1964-03-23,8027.36
1964-03-24,8027.51
1964-03-25,8027.61
1964-03-26,8027.69
1964-03-27,8027.85
1964-03-28,8028.05
1964-03-29,8028.2
1964-03-30,8028.31
1964-03-31,8028.55
1964-04-01,8028.84
1964-04-02,8029.18
1964-04-03,8029.4
1964-04-04,8029.7
1964-04-05,8029.9
1964-04-06,8030.03
1964-04-07,8030.2
1964-04-08,8030.34
1964-04-09,8030.51
1964-04-10,8030.72
1964-04-11,8030.95
1964-04-12,8031.25
1964-04-13,8031.5
1964-04-14,8031.83
1964-04-15,8032.34
1964-04-16,8033.1
1964-04-17,8034.01
1964-04-18,8034.61
1964-04-19,8035.45
1964-04-20,8035.94
1964-04-21,8036.43
1964-04-22,8036.94
1964-04-23,8037.57
1964-04-24,8038.27
1964-04-25,8038.78
1964-04-26,8039.34
1964-04-27,8039.96
1964-04-28,8040.42
1964-04-29,8041.04
1964-04-30,8041.67
1964-05-01,8042.23
1964-05-02,8042.69
1964-05-03,8043.14
1964-05-04,8043.61
1964-05-05,8044.05
1964-05-06,8044.45
1964-05-07,8044.86
1964-05-08,8045.21
1964-05-09,8045.56
1964-05-10,8045.94
1964-05-11,8046.36
1964-05-12,8046.88
1964-05-13,8047.45
1964-05-14,8048.6
1964-05-15,8050.4
1964-05-16,8052.92
1964-05-17,8055.94
1964-05-18,8059.95
1964-05-19,8063.0
1964-05-20,8066.35
1964-05-21,8070.3
1964-05-22,8073.1
1964-05-23,8076.31
1964-05-24,8079.68
1964-05-25,8082.48
1964-05-26,8084.76
1964-05-27,8086.65
1964-05-28,8087.5
1964-05-29,8087.96
1964-05-30,8087.78
1964-05-31,8087.3
1964-06-01,8086.63
1964-06-02,8086.17
1964-06-03,8085.97
1964-06-04,8085.61
1964-06-05,8085.63
1964-06-06,8085.66
1964-06-07,8085.93
1964-06-08,8086.18
1964-06-09,8085.9
1964-06-10,8085.89
1964-06-11,8085.97
1964-06-12,8085.98
1964-06-13,8085.88
1964-06-14,8085.6
1964-06-15,8085.31
1964-06-16,8085.05
1964-06-17,8084.61
1964-06-18,8083.98
1964-06-19,8083.31
1964-06-20,8082.66
1964-06-21,8081.98
1964-06-22,8081.25
1964-06-23,8080.43
1964-06-24,8079.64
1964-06-25,8078.83
1964-06-26,8077.99
1964-06-27,8077.27
1964-06-28,8076.53
1964-06-29,8075.78
1964-06-30,8075.05
1964-07-01,8074.4
1964-07-02,8073.67
1964-07-03,8072.96
1964-07-04,8072.23
1964-07-05,8071.48
1964-07-06,8070.73
1964-07-07,8070.02
1964-07-08,8069.34
1964-07-09,8068.65
1964-07-10,8068.03
1964-07-11,8067.52
1964-07-12,8067.5
1964-07-13,8067.17
1964-07-14,8067.19
1964-07-15,8067.55
1964-07-16,8067.72
1964-07-17,8067.84
1964-07-18,8068.0
1964-07-19,8067.95
1964-07-20,8067.79
1964-07-21,8067.52
1964-07-22,8067.19
1964-07-23,8066.94
1964-07-24,8066.79
1964-07-25,8066.72
1964-07-26,8066.61
1964-07-27,8066.37
1964-07-28,8066.14
1964-07-29,8065.87
1964-07-30,8065.73
1964-07-31,8065.4
1964-08-01,8065.25
1964-08-02,8065.65
1964-08-03,8065.93
1964-08-04,8065.96
1964-08-05,8065.9
1964-08-06,8065.75
1964-08-07,8065.61
1964-08-08,8065.57
1964-08-09,8065.39
1964-08-10,8065.36
1964-08-11,8065.28
1964-08-12,8065.37
1964-08-13,8066.03
1964-08-14,8067.88
1964-08-15,8069.01
1964-08-16,8069.86
1964-08-17,8070.53
1964-08-18,8070.62
1964-08-19,8070.65
1964-08-20,8070.65
1964-08-21,8070.65
1964-08-22,8070.52
1964-08-23,8070.34
1964-08-24,8070.13
1964-08-25,8069.87
1964-08-26,8069.58
1964-08-27,8069.31
1964-08-28,8069.01
1964-08-29,8068.71
1964-08-30,8068.37
1964-08-31,8068.01
1964-09-01,8067.55
1964-09-02,8067.02
1964-09-03,8066.47
1964-09-04,8065.89
1964-09-05,8065.33
1964-09-06,8064.85
1964-09-07,8064.3
1964-09-08,8063.76
1964-09-09,8063.09
1964-09-10,8062.52
1964-09-11,8061.91
1964-09-12,8061.21
1964-09-13,8060.5
1964-09-14,8059.84
1964-09-15,8059.71
1964-09-16,8059.71
1964-09-17,8059.69
1964-09-18,8059.58
1964-09-19,8059.44
1964-09-20,8059.31
1964-09-21,8059.23
1964-09-22,8059.25
1964-09-23,8059.35
1964-09-24,8059.45
1964-09-25,8059.53
1964-09-26,8059.76
1964-09-27,8059.99
1964-09-28,8060.2
1964-09-29,8060.35
1964-09-30,8060.51
1964-10-01,8060.51
1964-10-02,8060.53
1964-10-03,8060.48
1964-10-04,8060.4
1964-10-05,8060.29
1964-10-06,8060.27
1964-10-07,8060.33
1964-10-08,8060.42
1964-10-09,8060.54
1964-10-10,8060.65
1964-10-11,8060.74
1964-10-12,8060.8
1964-10-13,8060.87
1964-10-14,8060.92
1964-10-15,8060.98
1964-10-16,8061.02
1964-10-17,8061.06
1964-10-18,8061.12
1964-10-19,8061.12
1964-10-20,8061.15
1964-10-21,8061.14
1964-10-22,8061.14
1964-10-23,8061.12
1964-10-24,8061.09
1964-10-25,8061.07
1964-10-26,8061.05
1964-10-27,8061.0
1964-10-28,8060.98
1964-10-29,8060.95
1964-10-30,8060.92
1964-10-31,8060.88
1964-11-01,8060.84
1964-11-02,8060.8
1964-11-03,8060.75
1964-11-04,8060.69
1964-11-05,8060.63
1964-11-06,8060.57
1964-11-07,8060.52
1964-11-08,8060.46
1964-11-09,8060.41
1964-11-10,8060.36
1964-11-11,8060.36
1964-11-12,8060.3
1964-11-13,8060.26
1964-11-14,8060.26
1964-11-15,8060.29
1964-11-16,8060.39
1964-11-17,8060.46
1964-11-18,8060.55
1964-11-19,8060.59
1964-11-20,8060.61
1964-11-21,8060.63
1964-11-22,8060.66
1964-11-23,8060.7
1964-11-24,8060.73
1964-11-25,8060.76
1964-11-26,8060.79
1964-11-27,8060.89
1964-11-28,8060.93
1964-11-29,8060.96
1964-11-30,8061.0
1964-12-01,8061.05
1964-12-02,8061.09
1964-12-03,8061.08
1964-12-04,8060.91
1964-12-05,8060.69
1964-12-06,8060.48
1964-12-07,8060.27
1964-12-08,8060.06
1964-12-09,8059.86
1964-12-10,8059.64
1964-12-11,8059.58
1964-12-12,8059.6
1964-12-13,8059.61
1964-12-14,8059.62
1964-12-15,8059.63
1964-12-16,8059.64
1964-12-17,8059.65
1964-12-18,8059.65
1964-12-19,8059.72
1964-12-20,8059.74
1964-12-21,8059.75
1964-12-22,8059.76
1964-12-23,8059.77
1964-12-24,8059.79
1964-12-25,8059.83
1964-12-26,8059.83
1964-12-27,8059.87
1964-12-28,8060.0
1964-12-29,8060.01
1964-12-30,8060.02
1964-12-31,8060.07
1965-01-01,8060.16
1965-01-02,8060.17
1965-01-03,8060.19
1965-01-04,8060.21
1965-01-05,8060.23
1965-01-06,8060.24
1965-01-07,8060.38
1965-01-08,8060.45
1965-01-09,8060.46
1965-01-10,8060.48
1965-01-11,8060.49
1965-01-12,8060.5
1965-01-13,8060.51
1965-01-14,8060.52
1965-01-15,8060.53
1965-01-16,8060.54
1965-01-17,8060.55
1965-01-18,8060.56
1965-01-19,8060.58
1965-01-20,8060.6
1965-01-21,8060.63
1965-01-22,8060.66
1965-01-23,8060.67
1965-01-24,8060.68
1965-01-25,8060.75
1965-01-26,8060.75
1965-01-27,8060.77
1965-01-28,8060.79
1965-01-29,8060.8
1965-01-30,8060.82
1965-01-31,8060.85
1965-02-01,8060.87
1965-02-02,8060.88
1965-02-03,8060.89
1965-02-04,8060.89
1965-02-05,8060.91
1965-02-06,8060.94
1965-02-07,8061.0
1965-02-08,8061.07
1965-02-09,8061.1
1965-02-10,8061.17
1965-02-11,8061.23
1965-02-12,8061.24
1965-02-13,8061.28
1965-02-14,8061.3
1965-02-15,8061.35
1965-02-16,8061.36
1965-02-17,8061.39
1965-02-18,8061.4
1965-02-19,8061.42
1965-02-20,8061.45
1965-02-21,8061.48
1965-02-22,8061.5
1965-02-23,8061.55
1965-02-24,8061.57
1965-02-25,8061.59
1965-02-26,8061.62
1965-02-27,8061.65
1965-02-28,8061.7
1965-03-01,8061.73
1965-03-02,8061.79
1965-03-03,8061.83
1965-03-04,8061.86
1965-03-05,8061.89
1965-03-06,8061.91
1965-03-07,8061.94
1965-03-08,8061.97
1965-03-09,8062.0
1965-03-10,8062.03
1965-03-11,8062.05
1965-03-12,8062.1
1965-03-13,8062.15
1965-03-14,8062.18
1965-03-15,8062.19
1965-03-16,8062.24
1965-03-17,8062.27
1965-03-18,8062.29
1965-03-19,8062.31
1965-03-20,8062.31
1965-03-21,8062.33
1965-03-22,8062.35
1965-03-23,8062.38
1965-03-24,8062.46
1965-03-25,8062.52
1965-03-26,8062.54
1965-03-27,8062.58
1965-03-28,8062.61
1965-03-29,8062.66
1965-03-30,8062.7
1965-03-31,8062.77
1965-04-01,8062.91
1965-04-02,8063.08
1965-04-03,8063.22
1965-04-04,8063.35
1965-04-05,8063.48
1965-04-06,8063.59
1965-04-07,8063.73
1965-04-08,8063.86
1965-04-09,8064.01
1965-04-10,8064.18
1965-04-11,8064.31
1965-04-12,8064.4
1965-04-13,8064.51
1965-04-14,8064.63
1965-04-15,8064.74
1965-04-16,8064.9
1965-04-17,8065.13
1965-04-18,8065.52
1965-04-19,8065.99
1965-04-20,8066.71
1965-04-21,8067.83
1965-04-22,8069.85
1965-04-23,8072.28
1965-04-24,8075.0
1965-04-25,8077.56
1965-04-26,8079.85
1965-04-27,8081.61
1965-04-28,8082.89
1965-04-29,8083.96
1965-04-30,8085.0
1965-05-01,8086.2
1965-05-02,8087.73
1965-05-03,8089.6
1965-05-04,8091.46
1965-05-05,8093.15
1965-05-06,8094.56
1965-05-07,8095.74
1965-05-08,8096.76
1965-05-09,8097.65
1965-05-10,8098.49
1965-05-11,8099.24
1965-05-12,8100.0
1965-05-13,8100.93
1965-05-14,8101.86
1965-05-15,8102.77
1965-05-16,8103.55
1965-05-17,8104.4
1965-05-18,8105.41
1965-05-19,8106.72
1965-05-20,8108.56
1965-05-21,8110.89
1965-05-22,8113.58
1965-05-23,8115.99
1965-05-24,8117.75
1965-05-25,8119.1
1965-05-26,8119.98
1965-05-27,8120.12
1965-05-28,8120.14
1965-05-29,8120.11
1965-05-30,8120.21
1965-05-31,8120.49
1965-06-01,8121.16
1965-06-02,8122.02
1965-06-03,8123.07
1965-06-04,8124.37
1965-06-05,8125.55
1965-06-06,8126.9
1965-06-07,8128.69
1965-06-08,8130.44
1965-06-09,8132.31
1965-06-10,8133.54
1965-06-11,8134.29
1965-06-12,8134.81
1965-06-13,8135.53
1965-06-14,8136.9
1965-06-15,8138.52
1965-06-16,8139.98
1965-06-17,8140.42
1965-06-18,8141.35
1965-06-19,8142.19
1965-06-20,8143.12
1965-06-21,8143.22
1965-06-22,8143.4
1965-06-23,8143.55
1965-06-24,8144.59
1965-06-25,8144.55
1965-06-26,8144.03
1965-06-27,8144.3
1965-06-28,8145.15
1965-06-29,8146.22
1965-06-30,8147.25
1965-07-01,8147.24
1965-07-02,8146.93
1965-07-03,8146.34
1965-07-04,8145.83
1965-07-05,8145.26
1965-07-06,8144.6
1965-07-07,8144.68
1965-07-08,8144.77
1965-07-09,8144.5
1965-07-10,8144.62
1965-07-11,8144.61
1965-07-12,8144.92
1965-07-13,8144.45
1965-07-14,8143.63
1965-07-15,8142.77
1965-07-16,8142.02
1965-07-17,8141.05
1965-07-18,8140.1
1965-07-19,8139.44
1965-07-20,8139.69
1965-07-21,8140.0
1965-07-22,8140.4
1965-07-23,8140.95
1965-07-24,8141.45
1965-07-25,8142.0
1965-07-26,8142.58
1965-07-27,8143.15
1965-07-28,8143.41
1965-07-29,8144.57
1965-07-30,8145.99
1965-07-31,8146.65
1965-08-01,8146.65
1965-08-02,8146.51
1965-08-03,8146.36
1965-08-04,8145.95
1965-08-05,8145.53
1965-08-06,8145.03
1965-08-07,8144.4
1965-08-08,8143.72
1965-08-09,8143.16
1965-08-10,8142.59
1965-08-11,8142.22
1965-08-12,8141.77
1965-08-13,8141.31
1965-08-14,8140.8
1965-08-15,8140.32
1965-08-16,8139.89
1965-08-17,8139.49
1965-08-18,8139.21
1965-08-19,8139.22
1965-08-20,8139.02
1965-08-21,8138.72
1965-08-22,8138.41
1965-08-23,8138.05
1965-08-24,8137.77
1965-08-25,8137.43
1965-08-26,8137.09
1965-08-27,8136.71
1965-08-28,8136.42
1965-08-29,8136.02
1965-08-30,8135.85
1965-08-31,8135.57
1965-09-01,8135.22
1965-09-02,8134.99
1965-09-03,8134.75
1965-09-04,8134.48
1965-09-05,8134.12
1965-09-06,8133.85
1965-09-07,8133.66
1965-09-08,8133.47
1965-09-09,8133.47
1965-09-10,8133.53
1965-09-11,8133.55
1965-09-12,8133.55
1965-09-13,8133.52
1965-09-14,8133.45
1965-09-15,8133.31
1965-09-16,8133.16
1965-09-17,8132.99
1965-09-18,8132.91
1965-09-19,8132.97
1965-09-20,8133.05
1965-09-21,8133.1
1965-09-22,8133.13
1965-09-23,8133.24
1965-09-24,8133.4
1965-09-25,8133.66
1965-09-26,8133.97
1965-09-27,8134.39
1965-09-28,8134.88
1965-09-29,8135.34
1965-09-30,8135.75
1965-10-01,8136.08
1965-10-02,8136.39
1965-10-03,8136.69
1965-10-04,8137.0
1965-10-05,8137.29
1965-10-06,8137.54
1965-10-07,8137.68
1965-10-08,8137.5
1965-10-09,8137.3
1965-10-10,8137.26
1965-10-11,8137.22
1965-10-12,8137.2
1965-10-13,8137.18
1965-10-14,8137.15
1965-10-15,8137.06
1965-10-16,8137.05
1965-10-17,8137.01
1965-10-18,8136.95
1965-10-19,8136.85
1965-10-20,8136.75
1965-10-21,8136.65
1965-10-22,8136.54
1965-10-23,8136.45
1965-10-24,8136.37
1965-10-25,8136.29
1965-10-26,8136.23
1965-10-27,8136.15
1965-10-28,8136.08
1965-10-29,8135.99
1965-10-30,8135.9
1965-10-31,8135.79
1965-11-01,8135.68
1965-11-02,8135.58
1965-11-03,8135.46
1965-11-04,8135.32
1965-11-05,8135.19
1965-11-06,8135.06
1965-11-07,8134.9
1965-11-08,8134.75
1965-11-09,8134.61
1965-11-10,8134.44
1965-11-11,8134.3
1965-11-12,8134.25
1965-11-13,8134.22
1965-11-14,8134.18
1965-11-15,8134.13
1965-11-16,8134.1
1965-11-17,8134.06
1965-11-18,8134.03
1965-11-19,8133.97
1965-11-20,8133.92
1965-11-21,8133.86
1965-11-22,8133.78
1965-11-23,8133.78
1965-11-24,8133.77
1965-11-25,8133.79
1965-11-26,8133.78
1965-11-27,8133.7
1965-11-28,8133.64
1965-11-29,8133.56
1965-11-30,8133.5
1965-12-01,8133.4
1965-12-02,8133.34
1965-12-03,8133.26
1965-12-04,8133.18
1965-12-05,8133.1
1965-12-06,8133.02
1965-12-07,8132.93
1965-12-08,8132.85
1965-12-09,8132.77
1965-12-10,8132.74
1965-12-11,8132.73
1965-12-12,8132.64
1965-12-13,8132.58
1965-12-14,8132.5
1965-12-15,8132.46
1965-12-16,8132.39
1965-12-17,8132.3
1965-12-18,8132.23
1965-12-19,8132.15
1965-12-20,8132.03
1965-12-21,8131.93
1965-12-22,8131.87
1965-12-23,8131.87
1965-12-24,8131.86
1965-12-25,8131.8
1965-12-26,8131.68
1965-12-27,8131.6
1965-12-28,8131.51
1965-12-29,8131.39
1965-12-30,8131.43
1965-12-31,8131.37
1966-01-01,8131.3
1966-01-02,8131.21
1966-01-03,8131.12
1966-01-04,8131.09
1966-01-05,8130.9
1966-01-06,8130.84
1966-01-07,8130.66
1966-01-08,8130.56
1966-01-09,8130.46
1966-01-10,8130.35
1966-01-11,8130.24
1966-01-12,8130.14
1966-01-13,8130.04
1966-01-14,8129.9
1966-01-15,8129.8
1966-01-16,8129.68
1966-01-17,8129.58
1966-01-18,8129.47
1966-01-19,8129.37
1966-01-20,8129.3
1966-01-21,8129.26
1966-01-22,8129.25
1966-01-23,8129.14
1966-01-24,8129.02
1966-01-25,8128.94
1966-01-26,8128.82
1966-01-27,8128.69
1966-01-28,8128.58
1966-01-29,8128.46
1966-01-30,8128.34
1966-01-31,8128.23
1966-02-01,8128.15
1966-02-02,8128.05
1966-02-03,8128.0
1966-02-04,8127.98
1966-02-05,8127.99
1966-02-06,8128.0
1966-02-07,8128.03
1966-02-08,8128.1
1966-02-09,8128.17
1966-02-10,8128.2
1966-02-11,8128.21
1966-02-12,8128.21
1966-02-13,8128.23
1966-02-14,8128.24
1966-02-15,8128.26
1966-02-16,8128.27
1966-02-17,8128.28
1966-02-18,8128.29
1966-02-19,8128.29
1966-02-20,8128.3
1966-02-21,8128.31
1966-02-22,8128.31
1966-02-23,8128.32
1966-02-24,8128.32
1966-02-25,8128.32
1966-02-26,8128.34
1966-02-27,8128.34
1966-02-28,8128.35
1966-03-01,8128.35
1966-03-02,8128.4
1966-03-03,8128.41
1966-03-04,8128.41
1966-03-05,8128.41
1966-03-06,8128.41
1966-03-07,8128.41
1966-03-08,8128.42
1966-03-09,8128.42
1966-03-10,8128.43
1966-03-11,8128.43
1966-03-12,8128.45
1966-03-13,8128.46
1966-03-14,8128.52
1966-03-15,8128.58
1966-03-16,8128.66
1966-03-17,8128.75
1966-03-18,8128.81
1966-03-19,8128.91
1966-03-20,8129.01
1966-03-21,8129.11
1966-03-22,8129.2
1966-03-23,8129.3
1966-03-24,8129.41
1966-03-25,8129.51
1966-03-26,8129.61
1966-03-27,8129.77
1966-03-28,8129.92
1966-03-29,8130.08
1966-03-30,8130.26
1966-03-31,8130.48
1966-04-01,8130.76
1966-04-02,8131.11
1966-04-03,8131.48
1966-04-04,8131.84
1966-04-05,8132.15
1966-04-06,8132.45
1966-04-07,8132.73
1966-04-08,8133.05
1966-04-09,8133.38
1966-04-10,8133.73
1966-04-11,8134.12
1966-04-12,8134.46
1966-04-13,8134.79
1966-04-14,8135.1
1966-04-15,8135.38
1966-04-16,8135.68
1966-04-17,8136.02
1966-04-18,8136.44
1966-04-19,8136.85
1966-04-20,8137.2
1966-04-21,8137.53
1966-04-22,8137.95
1966-04-23,8138.28
1966-04-24,8138.55
1966-04-25,8138.86
1966-04-26,8139.2
1966-04-27,8139.56
1966-04-28,8139.95
1966-04-29,8140.35
1966-04-30,8140.71
1966-05-01,8141.15
1966-05-02,8141.62
1966-05-03,8142.1
1966-05-04,8142.75
1966-05-05,8143.36
1966-05-06,8144.1
1966-05-07,8144.6
1966-05-08,8144.95
1966-05-09,8144.9
1966-05-10,8144.95
1966-05-11,8144.65
1966-05-12,8144.45
1966-05-13,8144.2
1966-05-14,8143.89
1966-05-15,8143.42
1966-05-16,8143.08
1966-05-17,8143.03
1966-05-18,8143.48
1966-05-19,8143.98
1966-05-20,8144.55
1966-05-21,8144.55
1966-05-22,8144.22
1966-05-23,8144.47
1966-05-24,8144.82
1966-05-25,8144.88
1966-05-26,8144.86
1966-05-27,8144.77
1966-05-28,8144.78
1966-05-29,8144.69
1966-05-30,8144.89
1966-05-31,8145.51
1966-06-01,8145.45
1966-06-02,8145.34
1966-06-03,8145.21
1966-06-04,8145.03
1966-06-05,8144.79
1966-06-06,8144.67
1966-06-07,8144.9
1966-06-08,8145.03
1966-06-09,8145.11
1966-06-10,8145.2
1966-06-11,8145.31
1966-06-12,8145.5
1966-06-13,8145.75
1966-06-14,8146.01
1966-06-15,8146.2
1966-06-16,8146.25
1966-06-17,8146.25
1966-06-18,8146.21
1966-06-19,8146.11
1966-06-20,8146.01
1966-06-21,8145.97
1966-06-22,8145.9
1966-06-23,8145.75
1966-06-24,8145.49
1966-06-25,8145.17
1966-06-26,8144.82
1966-06-27,8144.48
1966-06-28,8144.1
1966-06-29,8143.68
1966-06-30,8143.44
1966-07-01,8143.53
1966-07-02,8143.44
1966-07-03,8143.16
1966-07-04,8142.8
1966-07-05,8142.4
1966-07-06,8141.93
1966-07-07,8141.45
1966-07-08,8140.94
1966-07-09,8140.38
1966-07-10,8139.81
1966-07-11,8139.3
1966-07-12,8138.68
1966-07-13,8138.05
1966-07-14,8137.45
1966-07-15,8136.86
1966-07-16,8136.35
1966-07-17,8135.83
1966-07-18,8135.33
1966-07-19,8134.84
1966-07-20,8134.49
1966-07-21,8134.18
1966-07-22,8133.86
1966-07-23,8133.48
1966-07-24,8133.05
1966-07-25,8132.6
1966-07-26,8132.22
1966-07-27,8131.78
1966-07-28,8131.32
1966-07-29,8130.89
1966-07-30,8130.66
1966-07-31,8130.46
1966-08-01,8130.23
1966-08-02,8130.02
1966-08-03,8130.16
1966-08-04,8130.45
1966-08-05,8130.61
1966-08-06,8130.65
1966-08-07,8130.6
1966-08-08,8130.53
1966-08-09,8130.39
1966-08-10,8130.22
1966-08-11,8130.02
1966-08-12,8129.81
1966-08-13,8129.58
1966-08-14,8129.34
1966-08-15,8129.08
1966-08-16,8128.85
1966-08-17,8128.59
1966-08-18,8128.38
1966-08-19,8128.13
1966-08-20,8127.85
1966-08-21,8127.58
1966-08-22,8127.28
1966-08-23,8126.99
1966-08-24,8126.67
1966-08-25,8126.36
1966-08-26,8126.03
1966-08-27,8125.7
1966-08-28,8125.35
1966-08-29,8124.99
1966-08-30,8124.63
1966-08-31,8124.31
1966-09-01,8123.98
1966-09-02,8123.61
1966-09-03,8123.23
1966-09-04,8122.86
1966-09-05,8122.48
1966-09-06,8122.14
1966-09-07,8121.77
1966-09-08,8121.41
1966-09-09,8121.06
1966-09-10,8120.7
1966-09-11,8120.42
1966-09-12,8120.11
1966-09-13,8119.85
1966-09-14,8119.6
1966-09-15,8119.45
1966-09-16,8119.33
1966-09-17,8119.25
1966-09-18,8119.15
1966-09-19,8119.03
1966-09-20,8118.9
1966-09-21,8118.85
1966-09-22,8118.72
1966-09-23,8118.56
1966-09-24,8118.42
1966-09-25,8118.24
1966-09-26,8118.08
1966-09-27,8117.9
1966-09-28,8117.71
1966-09-29,8117.51
1966-09-30,8117.31
1966-10-01,8117.09
1966-10-02,8116.86
1966-10-03,8116.67
1966-10-04,8116.48
1966-10-05,8116.31
1966-10-06,8116.15
1966-10-07,8115.97
1966-10-08,8115.82
1966-10-09,8115.67
1966-10-10,8115.5
1966-10-11,8115.35
1966-10-12,8115.22
1966-10-13,8115.07
1966-10-14,8114.91
1966-10-15,8114.74
1966-10-16,8114.58
1966-10-17,8114.41
1966-10-18,8114.24
1966-10-19,8114.06
1966-10-20,8113.88
1966-10-21,8113.7
1966-10-22,8113.45
1966-10-23,8113.19
1966-10-24,8112.95
1966-10-25,8112.74
1966-10-26,8112.55
1966-10-27,8112.36
1966-10-28,8112.08
1966-10-29,8112.04
1966-10-30,8112.0
1966-10-31,8112.02
1966-11-01,8112.04
1966-11-02,8112.04
1966-11-03,8112.06
1966-11-04,8112.08
1966-11-05,8112.09
1966-11-06,8112.1
1966-11-07,8112.12
1966-11-08,8112.2
1966-11-09,8112.34
1966-11-10,8112.36
1966-11-11,8112.39
1966-11-12,8112.43
1966-11-13,8112.46
1966-11-14,8112.48
1966-11-15,8112.51
1966-11-16,8112.54
1966-11-17,8112.58
1966-11-18,8112.6
1966-11-19,8112.62
1966-11-20,8112.64
1966-11-21,8112.67
1966-11-22,8112.7
1966-11-23,8112.73
1966-11-24,8112.75
1966-11-25,8112.77
1966-11-26,8112.79
1966-11-27,8112.8
1966-11-28,8112.81
1966-11-29,8112.83
1966-11-30,8112.85
1966-12-01,8112.75
1966-12-02,8112.64
1966-12-03,8112.54
1966-12-04,8112.49
1966-12-05,8112.4
1966-12-06,8112.49
1966-12-07,8112.86
1966-12-08,8112.92
1966-12-09,8112.97
1966-12-10,8112.98
1966-12-11,8113.0
1966-12-12,8113.03
1966-12-13,8113.05
1966-12-14,8113.07
1966-12-15,8113.1
1966-12-16,8113.11
1966-12-17,8113.12
1966-12-18,8113.14
1966-12-19,8113.15
1966-12-20,8113.17
1966-12-21,8113.18
1966-12-22,8113.2
1966-12-23,8113.2
1966-12-24,8113.2
1966-12-25,8113.2
1966-12-26,8113.24
1966-12-27,8113.31
1966-12-28,8113.33
1966-12-29,8113.33
1966-12-30,8113.34
1966-12-31,8113.35
1967-01-01,8113.37
1967-01-02,8113.37
1967-01-03,8113.37
1967-01-04,8113.37
1967-01-05,8113.37
1967-01-06,8113.38
1967-01-07,8113.39
1967-01-08,8113.39
1967-01-09,8113.39
1967-01-10,8113.39
1967-01-11,8113.39
1967-01-12,8113.4
1967-01-13,8113.4
1967-01-14,8113.4
1967-01-15,8113.4
1967-01-16,8113.4
1967-01-17,8113.4
1967-01-18,8113.4
1967-01-19,8113.4
1967-01-20,8113.4
1967-01-21,8113.41
1967-01-22,8113.42
1967-01-23,8113.42
1967-01-24,8113.46
1967-01-25,8113.51
1967-01-26,8113.53
1967-01-27,8113.54
1967-01-28,8113.54
1967-01-29,8113.55
1967-01-30,8113.56
1967-01-31,8113.6
1967-02-01,8113.62
1967-02-02,8113.63
1967-02-03,8113.64
1967-02-04,8113.64
1967-02-05,8113.65
1967-02-06,8113.66
1967-02-07,8113.67
1967-02-08,8113.68
1967-02-09,8113.69
1967-02-10,8113.69
1967-02-11,8113.71
1967-02-12,8113.72
1967-02-13,8113.72
1967-02-14,8113.73
1967-02-15,8113.74
1967-02-16,8113.75
1967-02-17,8113.75
1967-02-18,8113.75
1967-02-19,8113.75
1967-02-20,8113.76
1967-02-21,8113.77
1967-02-22,8113.78
1967-02-23,8113.78
1967-02-24,8113.78
1967-02-25,8113.8
1967-02-26,8113.82
1967-02-27,8113.83
1967-02-28,8113.84
1967-03-01,8113.85
1967-03-02,8113.87
1967-03-03,8113.9
1967-03-04,8113.93
1967-03-05,8113.96
1967-03-06,8114.01
1967-03-07,8114.03
1967-03-08,8114.05
1967-03-09,8114.09
1967-03-10,8114.11
1967-03-11,8114.16
1967-03-12,8114.19
1967-03-13,8114.22
1967-03-14,8114.25
1967-03-15,8114.28
1967-03-16,8114.31
1967-03-17,8114.36
1967-03-18,8114.42
1967-03-19,8114.49
1967-03-20,8114.55
1967-03-21,8114.62
1967-03-22,8114.69
1967-03-23,8114.77
1967-03-24,8114.86
1967-03-25,8114.97
1967-03-26,8115.06
1967-03-27,8115.17
1967-03-28,8115.26
1967-03-29,8115.36
1967-03-30,8115.46
1967-03-31,8115.54
1967-04-01,8115.63
1967-04-02,8115.7
1967-04-03,8115.79
1967-04-04,8115.89
1967-04-05,8116.0
1967-04-06,8116.09
1967-04-07,8116.2
1967-04-08,8116.31
1967-04-09,8116.44
1967-04-10,8116.58
1967-04-11,8116.71
1967-04-12,8116.82
1967-04-13,8116.93
1967-04-14,8117.03
1967-04-15,8117.14
1967-04-16,8117.24
1967-04-17,8117.33
1967-04-18,8117.48
1967-04-19,8117.56
1967-04-20,8117.64
1967-04-21,8117.76
1967-04-22,8117.79
1967-04-23,8117.76
1967-04-24,8117.72
1967-04-25,8117.62
1967-04-26,8117.48
1967-04-27,8117.43
1967-04-28,8117.43
1967-04-29,8117.53
1967-04-30,8117.64
1967-05-01,8117.69
1967-05-02,8117.63
1967-05-03,8117.53
1967-05-04,8117.37
1967-05-05,8117.18
1967-05-06,8116.97
1967-05-07,8116.8
1967-05-08,8116.87
1967-05-09,8117.46
1967-05-10,8118.46
1967-05-11,8119.34
1967-05-12,8120.06
1967-05-13,8120.66
1967-05-14,8120.84
1967-05-15,8120.85
1967-05-16,8121.2
1967-05-17,8121.72
1967-05-18,8122.3
1967-05-19,8122.8
1967-05-20,8123.45
1967-05-21,8124.14
1967-05-22,8124.8
1967-05-23,8125.33
1967-05-24,8125.68
1967-05-25,8126.08
1967-05-26,8126.32
1967-05-27,8126.4
1967-05-28,8126.32
1967-05-29,8126.17
1967-05-30,8125.9
1967-05-31,8125.61
1967-06-01,8125.3
1967-06-02,8124.98
1967-06-03,8124.77
1967-06-04,8124.9